Weather History for Kars, Turkey

Change the Weather History Date:

Tuesday, May 21, 2013

  Actual Average Record
Temperature  
Mean Temperature 52 °F -  
Max Temperature 64 °F 67 °F - ()
Min Temperature 41 °F 42 °F - ()
Degree Days  
Heating Degree Days 12    
Growing Degree Days 2 (Base 50)    
Moisture  
Dew Point 40 °F    
Average Humidity 64    
Maximum Humidity 87    
Minimum Humidity 33    
Precipitation  
Precipitation 0.00 in 0.10 in - ()
Sea Level Pressure  
Sea Level Pressure 30.11 in    
Wind  
Wind Speed 5 mph ()    
Max Wind Speed 9 mph    
Max Gust Speed 45 mph    
Visibility 6.1 miles    
Events      
T = Trace of Precipitation, MM = Missing Value Source: Averaged Metar Reports

Daily Weather History Graph

Daily Weather History Graph

Search for Another Location

Airport:

Trip Planner

Search our weather history database for the weather conditions in past years. The results will help you decide how hot, cold, wet, or windy it might be!

Date:

Astronomy

May. 21, 2013 Rise Set
Actual Time 4:45 AM EEST 7:23 PM EEST
Civil Twilight 4:14 AM EEST 7:54 PM EEST
Nautical Twilight 3:35 AM EEST 8:34 PM EEST
Astronomical Twilight 2:50 AM EEST 9:18 PM EEST
Moon 3:11 PM EEST (5/21) 2:02 AM EEST (5/21)
Length of Visible Light 15h 40m
Length of Day
14h 37m
Waxing Gibbous, 81% of the Moon is Illuminated
May 21
Waxing Gibbous
May 25
Full
May 31
Last Quarter
Jun 8
New
Jun 16
First Quarter

Hourly Weather History & Observations

Time (EEST) Temp. Dew Point Humidity Pressure Visibility Wind Dir Wind Speed Gust Speed Precip Events Conditions
12:50 AM 44.6 °F 39.2 °F 81% 30.15 in - North - - N/A   Mostly Cloudy
1:50 AM 44.6 °F 39.2 °F 81% 30.15 in - North - - N/A   Mostly Cloudy
3:00 AM 44 °F 38 °F 73%  in 6 mi Calm Calm - -   Mostly Cloudy
3:50 AM 42.8 °F 37.4 °F 81% 30.15 in - North - - N/A   Mostly Cloudy
4:50 AM 41.0 °F 37.4 °F 87% 30.15 in - North - - N/A   Mostly Cloudy
5:50 AM 42.8 °F 37.4 °F 81% 30.15 in - North - - N/A   Mostly Cloudy
6:50 AM 44.6 °F 37.4 °F 76% 30.18 in - North - - N/A   Mostly Cloudy
7:50 AM 46.4 °F 37.4 °F 71% 30.15 in - North - - N/A   Mostly Cloudy
8:50 AM 48.2 °F 39.2 °F 71% 30.18 in - North - - N/A   Mostly Cloudy
9:00 AM 49 °F 39 °F 59%  in 6 mi North 9.2 mph - -   Mostly Cloudy
9:50 AM 53.6 °F 39.2 °F 58% 30.15 in - North - - N/A   Mostly Cloudy
10:50 AM 55.4 °F 41.0 °F 58% 30.12 in - North - - N/A   Mostly Cloudy
11:50 AM 57.2 °F 42.8 °F 59% 30.12 in - North - - N/A   Mostly Cloudy
12:50 PM 59.0 °F 41.0 °F 51% 30.12 in - North - - N/A   Mostly Cloudy
1:50 PM 60.8 °F 41.0 °F 48% 30.09 in - North - - N/A   Mostly Cloudy
2:50 PM 60.8 °F 39.2 °F 45% 30.09 in 6.2 mi Variable 1.2 mph 13.8 mph N/A   Mostly Cloudy
3:00 PM 61 °F 39 °F 33%  in 6 mi ENE 5.8 mph - -   Mostly Cloudy
3:50 PM 59.0 °F 42.8 °F 55% 30.06 in 6.2 mi East 5.8 mph - N/A   Mostly Cloudy
4:50 PM 60.8 °F 42.8 °F 52% 30.06 in - North - - N/A   Mostly Cloudy
5:50 PM 59.0 °F 39.2 °F 48% 30.06 in 6.2 mi ESE 6.9 mph 44.9 mph N/A   Mostly Cloudy
6:50 PM 57.2 °F 42.8 °F 59% 30.06 in 6.2 mi SE 8.1 mph - N/A   Scattered Clouds
7:50 PM 55.4 °F 42.8 °F 63% 30.06 in 6.2 mi SE 8.1 mph - N/A   Scattered Clouds
8:50 PM 50.0 °F 39.2 °F 66% 30.09 in 6.2 mi NNE 3.5 mph - N/A   Scattered Clouds
9:00 PM 51 °F 40 °F 55%  in 6 mi NNE 3.5 mph - -   Partly Cloudy
9:50 PM 50.0 °F 39.2 °F 66% 30.09 in 6.2 mi NNE 3.5 mph - N/A   Scattered Clouds
10:50 PM 46.4 °F 39.2 °F 76% 30.06 in - North - - N/A   Scattered Clouds
11:50 PM 44.6 °F 39.2 °F 81% 30.09 in 6.2 mi Calm Calm - N/A   Scattered Clouds